View from above orbital plane
|
View from above satellite
|
Ground track
|
The orbit data is extracted from the following two-line orbital elements,
1 31598U 07023A 21016.47351904 .00000158 00000-0 26444-4 0 9999
2 31598 97.8824 202.5384 0001424 93.0640 267.0790 14.82156660736380
Epoch (UTC): | 16 January 2021 11:21:52 |
Eccentricity: | 0.0001424 |
inclination: | 97.8824° |
perigee height: | 621 km |
apogee height: | 623 km |
right ascension of ascending node: | 202.5384° |
argument of perigee: | 93.0640° |
revolutions per day: | 14.82156660 |
mean anomaly at epoch: | 267.0790° |
orbit number at epoch: | 73638 |
The dashed part of the orbit path shows where the satellite is in the earth's shadow,
|
|